Content
SEND FEEDBACK

Daily
Averages
Monthly
Summary
United States of America

LINN, MISSOURI


Home > North America > United States > Missouri
Elevation: 624 feet     Latitude: 38 28N     Longitude: 091 41W

WEATHER
 
SELECT A DAY
Number of Records: 206,479;   Date Range: 1/1/95 - 12/16/14
 
SHARE

PRINT THIS DATA

[ ← Previous Day ]
WEATHER ALMANAC - JANUARY 23, 2013
[ Next Day → ]
[ °C ]   °F
Weather ElementAverageHighLow
Temperature30.2 °F48 °F (2:53 pm)14 °F (1:53 am)
Dewpoint17.3 °F25 °F (2:53 pm)5 °F (1:53 am)
Humidity60.3 %78 % (6:53 am)41 % (2:53 pm)
Barometer30.25 in30.35 in (11:53 pm)30.15 in (1:53 pm)
Wind Speed7.6 mph11.5 mph (3:53 pm)
Weather ElementAverage
Visibility10 mi
Wind DirectionWSW (233.5 °)

Weather ElementTotal
Precipitation---
Heating Degree Days34 (Base 65)
Averaged from 23 records on January 23, 2013
WEATHER CONDITIONS BREAKOUT
WIND DIRECTION BREAKOUT
WEATHER BY HOUR - JANUARY 23, 2013
[ °C ]   °F
Local TimeTemperatureDewpointHumidityBarometerVisibilityWind DirectionWind SpeedGust SpeedPrecipitationEventsConditions
1:53 AM14.0 °F5.0 °F67 %30.31 in10.0 miESE (120°)3.5 mphClear
2:53 AM14.0 °F5.0 °F67 %30.30 in10.0 miESE (110°)5.8 mphClear
3:53 AM14.0 °F6.1 °F71 %30.29 in10.0 miESE (110°)6.9 mphClear
4:53 AM15.1 °F7.0 °F70 %30.27 in10.0 miSSE (150°)6.9 mphClear
5:53 AM16.0 °F9.0 °F74 %30.27 in10.0 miSSE (160°)6.9 mphClear
6:53 AM18.0 °F12.0 °F78 %30.28 in10.0 miSouth (180°)6.9 mphClear
7:53 AM19.9 °F14.0 °F78 %30.27 in10.0 miSouth (180°)6.9 mphClear
8:53 AM24.1 °F16.0 °F71 %30.27 in10.0 miSSW (200°)10.4 mphClear
9:53 AM30.0 °F19.0 °F64 %30.26 in10.0 miSSW (210°)8.1 mphClear
10:53 AM35.1 °F21.0 °F57 %30.25 in10.0 miSSW (210°)8.1 mphClear
11:53 AM39.9 °F21.0 °F47 %30.21 in10.0 miSW (220°)9.2 mphClear
12:53 PM43.0 °F23.0 °F45 %30.17 in10.0 miSW (230°)10.4 mphClear
1:53 PM46.0 °F24.1 °F42 %30.15 in10.0 miVariable3.5 mphClear
2:53 PM48.0 °F25.0 °F41 %30.15 in10.0 miWNW (300°)9.2 mphClear
3:53 PM48.0 °F25.0 °F41 %30.16 in10.0 miNW (310°)11.5 mphClear
4:53 PM44.1 °F23.0 °F43 %30.17 in10.0 miWNW (300°)8.1 mphClear
5:53 PM37.0 °F21.9 °F54 %30.20 in10.0 miNNW (340°)4.6 mphClear
6:53 PM34.0 °F21.0 °F59 %30.22 in10.0 miNNW (340°)6.9 mphClear
7:53 PM35.1 °F21.9 °F59 %30.24 in10.0 miNNW (340°)9.2 mphClear
8:53 PM33.1 °F21.0 °F61 %30.27 in10.0 miNNW (330°)6.9 mphClear
9:53 PM30.0 °F19.9 °F66 %30.30 in10.0 miNNW (340°)6.9 mphClear
10:53 PM28.9 °F19.0 °F67 %30.32 in10.0 miNNW (340°)8.1 mphClear
11:53 PM27.0 °F17.1 °F66 %30.35 in10.0 miNorth (350°)10.4 mphClear
Hourly data recorded from KVIH, located miles away from Linn, Missouri







STORIES FROM OUR PARTNERS